Flag for U.S.A. Weather past 2 weeks in Germantown, Maryland, U.S.A.

Now
63 °F

Light rain. Overcast.


Feels Like: 63 °F
Forecast: 49 / 56 °F
Wind: 15 mph from North

Location: Frederick Municipal Airport

Current Time: Oct 22, 2014 at 11:40:01 AM

Latest Report: Oct 22, 2014 at 10:55 AM


Visibility: 10 mi

Pressure: 29.99 "Hg

Humidity: 59%

Dew point: 48 °F

Location of GermantownLocation

Historic Weather in Germantown — Graph

°F

Germantown temperature yesterday

Maximum temperature yesterday: 70 °F (at 11:50 AM)
Minimum temperature yesterday: 48 °F (at 6:25 AM)
Average temperature yesterday: 57 °F

Past Weeks' High & Low Weather Summary

 TemperatureHumidityPressure
High81 °F (Oct 14, 12:48 PM)100% (Oct 8, 3:10 AM)30.33 "Hg (Oct 8, 3:10 AM)
Low39 °F (Oct 20, 3:20 AM)24% (Oct 19, 2:59 PM)29.64 "Hg (Oct 18, 4:55 AM)
Average60 °F79%30.00 "Hg
* Reported Oct 7 9:50 AM — Oct 22 9:59 AM, Germantown, Weather by CustomWeather, © 2014

Note: Actual official high and low records may vary slightly from our data, if they occured in-between our weather recording intervals... More about our weather records

Advertising

Germantown weather history for previous 24 hours

 ConditionsComfort  
Time TempWeatherWind HumidityBarometerVisibility
9:59 AM
Oct 22
61 °FMostly cloudy.8 mph63%29.99 "Hg10 mi
8:45 AM59 °FCloudy.5 mph68%29.97 "Hg10 mi
7:45 AM57 °FMostly cloudy.9 mph77%29.96 "Hg10 mi
6:45 AM57 °FDrizzle. Overcast.6 mph82%29.94 "Hg7 mi
6:30 AM55 °FLight rain. Mostly cloudy.6 mph82%29.94 "Hg10 mi
6:10 AM55 °FLight rain. Mostly cloudy.8 mph82%29.94 "Hg10 mi
5:50 AM55 °FRain. Mostly cloudy.9 mph82%29.94 "Hg10 mi
5:30 AM55 °FDrizzle. Mostly cloudy.10 mph88%29.94 "Hg10 mi
5:10 AM55 °FThundershowers. Mostly cloudy.8 mph88%29.93 "Hg10 mi
4:50 AM55 °FDrizzle. Overcast.6 mph88%29.92 "Hg7 mi
4:30 AM55 °FLight rain. Mostly cloudy.No wind88%29.92 "Hg5 mi
4:10 AM55 °FLight rain. Mostly cloudy.No wind88%29.92 "Hg5 mi
3:50 AM55 °FLight rain. Mostly cloudy.No wind88%29.92 "Hg5 mi
3:30 AM55 °FLight rain. Overcast.No wind88%29.92 "Hg4 mi
3:10 AM55 °FThundershowers. Mostly cloudy.No wind88%29.92 "Hg5 mi
2:50 AM55 °FDrizzle. Overcast.No wind88%29.92 "Hg5 mi
2:30 AM55 °FThundershowers. Overcast.No wind88%29.92 "Hg4 mi
2:10 AM55 °FThunderstorms. Fog.No wind88%29.92 "Hg5 mi
1:50 AM55 °FMostly cloudy.No wind88%29.92 "Hg7 mi
1:30 AM55 °FThundershowers. Mostly cloudy.No wind88%29.93 "Hg7 mi
1:10 AM55 °FThundershowers. Overcast.No wind88%29.94 "Hg5 mi
12:50 AM55 °FRain. Mostly cloudy.No wind88%29.94 "Hg4 mi
12:30 AM55 °FThundershowers. Mostly cloudy.No wind88%29.94 "Hg4 mi
12:10 AM55 °FLight rain. Mostly cloudy.No wind88%29.95 "Hg7 mi
11:50 PM
Oct 21
55 °FLight rain. Mostly cloudy.No wind88%29.95 "Hg7 mi
11:30 PM55 °FRain. Mostly cloudy.No wind82%29.96 "Hg10 mi
11:10 PM55 °FOvercast.No wind88%29.96 "Hg10 mi
10:50 PM55 °FLight rain. Overcast.No wind82%29.96 "Hg10 mi
10:30 PM55 °FLight rain. Overcast.No wind82%29.96 "Hg10 mi
10:10 PM55 °FLight rain. Overcast.No wind82%29.95 "Hg10 mi
9:50 PM57 °FLight rain. Mostly cloudy.No wind77%29.94 "Hg10 mi
9:30 PM57 °FRain. Overcast.No wind77%29.94 "Hg10 mi
8:45 PM59 °FMostly cloudy.3 mph68%29.92 "Hg10 mi
7:47 PM57 °FOvercast.5 mph77%29.92 "Hg10 mi
6:47 PM61 °FCloudy.5 mph63%29.91 "Hg10 mi
5:45 PM63 °FOvercast.5 mph59%29.88 "Hg10 mi
4:50 PM66 °FOvercast.12 mph52%29.85 "Hg10 mi
3:45 PM70 °FPartly sunny.6 mph43%29.84 "Hg10 mi
2:45 PM70 °FBroken clouds.7 mph43%29.84 "Hg10 mi
1:45 PM70 °FPartly sunny.6 mph43%29.85 "Hg10 mi
12:50 PM70 °FScattered clouds.7 mph46%29.87 "Hg10 mi
11:50 AM70 °FSunny.7 mph50%29.89 "Hg10 mi
Weather by CustomWeather, © 2014

See weather overviewHow to use our weather pages